Location: Pasadena, ca
(34.1243°N, 118.1037°W)
Time: 01:43:34
(UTC-08:00)

Tiangong 1 - Visible Passes

Search period start: 25 November 2017 00:00
Search period end: 05 December 2017 00:00
Orbit: 283 x 307 km, 42.8° (Epoch: 24 November)

Date Brightness Start Highest point End Pass type
(mag) Time Alt. Az. Time Alt. Az. Time Alt. Az.
25 Nov 1.4 17:49:07 10° W 17:51:36 42° NNW 17:52:29 29° NNE visible
26 Nov 2.2 17:55:48 10° WNW 17:57:59 23° NNW 17:58:31 22° N visible
27 Nov 2.8 18:02:32 10° NW 18:04:18 16° NNW 18:04:22 16° N visible
28 Nov 3.2 18:09:10 10° NW 18:10:05 13° NNW 18:10:05 13° NNW visible
29 Nov 3.5 18:15:28 10° NNW 18:15:38 11° NNW 18:15:38 11° NNW visible
04 Dec 4.0 18:42:03 10° WNW 18:42:11 11° WNW 18:42:11 11° WNW visible
